Temp
58 58 57 56 55 53 48 44 53 64 65 55 42 46 51 60 63 66 63 62 61 59 61 56 56 60 64 71 68 65 66 60 61 63 70 74 69 62 57 52 49 47 46 52
58 58 57 56 55 54 45 42 43 60 64 47 44 49 56 59 61 62 62 59 59 62 57 53 60 62 70 69 67 65 63 56 54 52 61 65 66 62 57 56 52 47 47 57
58 58 57 56 55 54 46 45 48 51 52 46 45 44 49 54 64 61 60 57 58 56 53 53 53 57 66 68 68 70 64 54 60 56 59 63 61 64 63 58 52 52 53 59
58 58 57 56 55 54 48 45 42 46 42 47 45 44 49 53 52 58 57 54 56 50 46 48 50 56 57 65 66 65 60 53 51 61 70 67 68 68 65 61 60 60 60 61
58 58 57 56 55 53 48 43 42 45 41 42 45 45 44 49 52 52 51 51 56 54 47 47 47 52 50 53 60 59 57 54 53 56 64 69 64 68 69 69 66 64 65 65
58 58 58 57 55 51 44 44 45 45 42 41 41 41 46 51 52 54 58 56 53 51 53 56 57 58 57 58 54 53 53 52 51 50 59 63 58 66 68 70 69 70 62 70
58 58 58 57 56 51 43 43 41 40 39 42 43 49 51 50 50 47 54 54 48 55 59 56 55 53 53 57 56 57 53 52 47 48 51 46 62 74 77 73 76 75 71 73
58 58 58 58 56 55 45 44 43 39 35 41 45 47 47 47 46 47 51 54 54 54 50 48 46 47 49 54 56 53 59 53 50 49 46 56 63 68 69 67 70 78 75 78
58 58 58 58 57 55 46 44 44 41 37 37 48 44 44 39 37 42 48 53 52 50 46 45 40 42 45 49 54 49 51 56 56 45 45 49 62 73 79 77 65 81 79 78
58 58 58 58 58 56 47 45 45 42 37 40 42 40 39 45 40 37 41 46 46 45 39 39 38 42 51 46 46 45 49 47 53 48 49 56 66 75 78 61 67 83 83 80
57 58 58 58 58 57 49 45 46 43 37 39 47 49 43 43 40 36 41 42 42 40 36 38 39 39 45 45 49 49 48 47 46 46 47 50 71 71 70 76 77 79 82 80
57 57 57 58 57 57 53 42 48 48 41 41 48 52 54 52 50 42 42 40 39 42 38 39 40 43 41 39 42 50 48 53 49 53 55 64 66 70 74 73 76 80 76 79
57 57 57 57 57 57 55 47 45 43 39 40 38 42 50 51 54 56 41 41 44 42 43 39 38 35 40 37 41 43 49 51 51 56 61 64 70 73 74 75 78 79 81 81
56 57 57 57 57 57 56 49 48 47 42 36 37 51 45 52 52 53 54 49 46 44 42 38 36 36 42 38 40 39 47 50 49 52 59 64 69 69 73 77 80 82 80 83
56 56 57 57 57 56 53 49 50 53 45 34 36 44 48 48 50 51 52 47 43 41 39 35 36 38 40 40 40 41 49 47 49 51 55 53 57 64 65 64 69 82 79 77
56 56 56 56 56 55 48 42 50 50 51 41 37 43 43 46 49 50 47 47 43 41 38 36 38 42 42 35 34 49 51 56 55 54 56 57 59 63 67 65 70 81 78 79
56 56 56 55 55 50 46 44 49 52 53 42 38 34 42 48 46 45 43 46 42 41 39 37 38 39 42 35 37 46 50 54 56 59 59 57 62 60 65 70 76 79 80 78
56 56 55 55 54 53 48 51 54 52 47 43 33 36 37 47 40 40 44 40 40 40 40 40 41 43 43 38 45 49 51 54 56 58 61 61 63 64 64 74 76 76 76 76
55 55 55 50 49 47 47 58 57 54 45 40 39 35 31 44 44 47 46 46 40 45 41 42 43 40 36 44 47 48 50 51 55 60 61 61 60 61 64 71 74 76 75 77
54 49 45 43 47 57 55 49 45 44 45 44 38 43 36 43 43 42 43 44 40 37 40 44 39 39 47 50 52 51 52 56 59 54 54 56 58 59 60 61 71 71 75 78
47 44 45 49 56 50 46 42 41 42 39 42 42 42 39 45 38 39 44 41 42 36 39 39 36 37 45 52 52 54 56 59 60 58 58 58 56 58 59 61 71 72 73 76
45 44 46 46 45 42 40 41 41 40 39 42 39 42 42 42 44 41 42 39 40 33 44 37 35 46 53 52 52 54 57 59 59 61 58 59 61 62 61 69 72 72 75 73
45 45 43 42 41 34 36 33 35 40 45 46 43 44 44 44 45 43 43 39 39 45 35 36 42 45 51 55 56 56 58 59 60 60 60 61 61 63 66 71 72 74 74 74
40 41 34 38 37 38 42 39 43 47 48 46 47 46 44 45 43 43 40 44 45 38 35 36 46 51 50 53 59 58 57 58 58 58 60 62 63 65 71 70 71 73 72 74
41 41 35 37 44 44 44 45 47 49 49 46 45 47 45 44 42 44 43 41 40 44 43 47 51 54 54 55 54 56 57 56 57 61 61 63 67 69 68 69 71 72 73 72
42 41 38 42 40 41 45 45 44 49 48 49 45 46 43 42 42 41 41 42 42 44 47 49 54 54 54 54 55 58 61 60 60 61 64 66 66 67 67 68 69 71 72 72
41 39 42 41 40 40 42 45 46 49 43 43 43 44 44 46 40 41 44 41 45 48 49 53 53 53 54 54 54 55 59 60 60 61 62 63 65 66 67 68 68 68 70 71
MSLP
1018.83 1018.04 1017.24 1016.34 1015.20 1013.87 1012.73 1012.92 1011.67 1009.45 1008.80 1009.89 1011.29 1011.08 1010.00 1008.52 1007.44 1006.36 1005.74 1005.37 1005.20 1005.33 1005.58 1005.43 1005.26 1005.07 1004.79 1004.56 1004.18 1004.37 1004.21 1005.22 1006.32 1005.80 1005.25 1005.20 1006.00 1007.57 1009.65 1011.41 1012.02 1011.95 1011.00 1007.99
1018.87 1018.16 1017.33 1016.40 1015.48 1014.98 1014.80 1014.22 1013.02 1009.68 1009.31 1011.15 1012.05 1011.26 1010.15 1009.14 1008.28 1007.84 1007.35 1007.45 1007.08 1006.53 1006.82 1006.84 1006.51 1006.16 1005.45 1005.43 1005.02 1004.77 1004.30 1004.84 1005.74 1005.93 1005.83 1005.48 1006.10 1006.85 1008.04 1009.32 1009.79 1010.55 1009.65 1006.92
1018.91 1018.28 1017.49 1016.61 1015.52 1014.92 1014.89 1014.76 1014.05 1012.52 1011.72 1012.59 1012.57 1012.20 1011.27 1010.15 1009.18 1009.24 1008.99 1009.20 1008.58 1008.51 1008.75 1008.55 1008.50 1007.81 1006.83 1006.57 1006.00 1005.10 1004.39 1004.74 1004.76 1004.98 1004.71 1004.59 1005.49 1006.14 1006.72 1007.37 1008.65 1008.57 1007.44 1005.93
1019.03 1018.41 1017.68 1016.87 1015.71 1014.84 1015.07 1015.23 1015.93 1015.33 1014.53 1014.03 1013.60 1012.83 1012.19 1011.50 1010.72 1010.20 1010.05 1010.22 1010.42 1010.41 1010.61 1010.44 1010.25 1009.46 1008.81 1007.45 1006.95 1006.15 1006.08 1006.02 1005.15 1003.91 1003.27 1003.68 1003.97 1004.66 1005.21 1005.69 1005.76 1006.42 1005.62 1005.25
1019.18 1018.60 1017.92 1017.21 1016.12 1014.85 1015.31 1016.40 1016.64 1015.96 1015.44 1014.87 1014.17 1013.57 1013.37 1012.61 1011.96 1011.42 1011.41 1011.49 1011.37 1011.18 1011.86 1012.11 1011.76 1011.12 1010.23 1009.47 1008.25 1007.72 1007.17 1006.80 1005.89 1004.33 1003.38 1003.09 1003.67 1003.71 1003.67 1004.03 1004.20 1003.66 1004.30 1003.70
1019.32 1018.84 1018.28 1017.66 1016.89 1015.93 1016.72 1017.06 1016.76 1016.51 1016.62 1015.78 1015.15 1014.86 1014.07 1013.56 1012.86 1012.51 1012.31 1012.13 1012.04 1012.06 1012.25 1012.08 1011.40 1010.85 1010.30 1009.86 1009.74 1009.24 1008.47 1007.81 1007.00 1005.45 1003.91 1003.58 1003.51 1002.04 1002.41 1002.56 1002.49 1002.40 1002.99 1002.16
1019.44 1019.06 1018.63 1018.17 1017.73 1017.58 1017.95 1017.93 1017.78 1017.50 1017.25 1016.63 1015.99 1015.35 1014.77 1014.39 1014.02 1013.57 1013.03 1012.76 1012.69 1012.60 1012.03 1011.52 1010.75 1010.44 1009.81 1009.53 1009.20 1009.04 1008.68 1008.32 1007.63 1006.71 1005.04 1004.15 1001.75 1000.50 1000.24 1000.83 1000.56 1000.50 1000.90 1000.69
1019.51 1019.19 1018.83 1018.45 1018.18 1017.93 1018.11 1018.11 1018.15 1018.26 1017.97 1017.25 1016.37 1015.92 1015.53 1015.07 1014.69 1014.36 1013.84 1013.44 1013.24 1012.96 1012.60 1012.08 1011.25 1010.41 1009.64 1008.88 1008.22 1008.20 1008.22 1008.13 1008.01 1007.40 1006.13 1003.64 1001.52 1000.58 1000.44 1000.54 1000.11 999.39 999.58 999.76
1019.59 1019.27 1018.98 1018.67 1018.37 1018.17 1018.25 1018.38 1018.19 1018.36 1018.41 1017.48 1016.76 1016.45 1016.13 1015.89 1015.69 1015.29 1014.56 1014.04 1013.38 1013.25 1013.31 1012.98 1012.57 1011.68 1010.50 1009.51 1008.02 1007.38 1007.80 1007.03 1007.60 1007.78 1006.17 1003.74 1000.92 999.46 999.21 999.45 999.19 998.57 998.74 998.96
1019.38 1019.27 1019.00 1018.79 1018.60 1018.33 1018.48 1018.55 1018.39 1018.53 1018.64 1017.40 1016.88 1016.66 1016.42 1016.26 1016.33 1016.41 1015.87 1015.26 1014.42 1014.04 1014.29 1014.09 1013.56 1012.40 1010.88 1010.17 1009.09 1008.34 1008.24 1008.20 1007.28 1007.06 1005.87 1003.04 1000.22 998.97 999.83 1000.00 998.77 997.67 997.73 998.19
1019.28 1019.12 1018.96 1018.77 1018.60 1018.47 1018.58 1018.71 1018.41 1018.70 1018.86 1017.67 1016.59 1016.41 1016.34 1016.40 1016.47 1016.77 1016.40 1015.92 1015.74 1015.49 1015.46 1015.21 1014.39 1013.52 1011.76 1010.66 1009.32 1008.46 1008.41 1008.28 1007.64 1006.33 1005.13 1003.11 1000.08 999.52 999.00 998.64 997.60 996.98 996.75 997.29
1019.04 1018.85 1018.69 1018.60 1018.54 1018.48 1018.52 1018.90 1018.49 1018.46 1018.78 1017.57 1016.40 1015.74 1015.73 1015.74 1015.84 1016.29 1016.47 1016.63 1016.45 1016.15 1016.37 1016.21 1015.50 1014.79 1013.53 1012.50 1010.84 1008.88 1008.99 1008.04 1007.45 1005.94 1003.60 1001.71 1000.45 999.66 998.75 998.64 998.21 997.06 996.61 996.96
1018.98 1018.80 1018.53 1018.30 1018.30 1018.25 1018.36 1018.66 1018.62 1018.55 1018.33 1017.07 1016.38 1015.16 1014.59 1014.68 1014.98 1015.15 1016.20 1016.34 1016.03 1016.31 1016.35 1016.58 1016.46 1015.99 1014.95 1013.86 1012.39 1011.12 1009.31 1008.69 1007.39 1005.95 1003.27 1002.17 1000.89 1000.07 999.26 998.64 997.88 996.90 996.39 996.21
1018.65 1018.49 1018.45 1018.18 1018.04 1017.92 1017.99 1018.37 1018.23 1018.38 1018.19 1017.76 1015.86 1014.72 1014.59 1014.23 1014.31 1014.78 1015.03 1015.39 1015.94 1016.25 1016.72 1016.98 1016.88 1016.62 1015.50 1014.65 1013.71 1012.77 1010.76 1009.55 1007.97 1006.52 1004.87 1002.39 1001.26 1001.28 1000.29 998.60 997.12 996.69 996.01 996.27
1018.35 1018.18 1018.08 1018.00 1017.77 1017.61 1017.64 1017.63 1017.36 1017.39 1017.85 1017.51 1016.30 1014.91 1013.52 1013.40 1013.72 1014.24 1014.59 1015.04 1015.77 1016.54 1017.11 1017.11 1016.99 1016.27 1015.96 1015.01 1014.26 1012.07 1010.62 1009.28 1008.33 1006.83 1005.99 1005.76 1004.02 1003.24 1002.27 1000.93 999.01 996.76 996.29 995.96
1018.03 1017.84 1017.74 1017.67 1017.59 1017.50 1017.72 1017.34 1016.91 1017.04 1017.29 1017.56 1016.65 1014.69 1013.87 1013.35 1013.18 1013.57 1014.07 1014.44 1015.12 1015.69 1016.16 1016.37 1015.73 1014.98 1015.16 1014.78 1012.86 1009.80 1009.39 1008.82 1008.17 1007.15 1006.56 1006.09 1004.59 1003.26 1001.78 1000.94 998.68 996.79 996.36 995.86
1017.59 1017.48 1017.36 1017.29 1017.30 1017.53 1017.47 1017.05 1017.03 1016.90 1016.98 1017.40 1016.63 1015.39 1013.94 1013.24 1013.08 1013.22 1013.32 1013.55 1013.99 1014.40 1014.84 1014.62 1014.68 1014.46 1014.27 1013.28 1011.20 1009.62 1008.87 1008.50 1007.91 1007.12 1007.02 1005.27 1003.70 1003.18 1001.38 999.90 997.94 996.69 995.86 995.66
1017.14 1017.00 1016.88 1016.83 1016.79 1016.82 1016.72 1015.96 1016.07 1016.73 1017.01 1017.25 1016.87 1015.51 1014.53 1013.34 1013.31 1013.19 1012.71 1013.13 1013.54 1013.48 1013.34 1013.18 1013.33 1013.43 1012.87 1011.20 1008.09 1008.51 1008.28 1008.42 1007.66 1006.56 1006.33 1005.52 1003.92 1003.04 1001.54 999.19 997.14 996.50 996.09 995.61
1016.64 1016.47 1016.34 1016.46 1016.50 1016.37 1015.97 1015.22 1015.29 1016.15 1016.98 1016.64 1016.10 1015.55 1014.70 1013.57 1013.23 1012.67 1012.36 1012.26 1012.77 1012.15 1011.95 1011.78 1012.24 1011.10 1009.40 1006.85 1006.57 1006.83 1006.96 1006.79 1006.10 1005.77 1005.43 1004.83 1004.29 1002.93 1001.79 999.55 997.12 995.92 995.73 995.55
1016.03 1016.28 1016.46 1016.21 1015.85 1015.42 1015.56 1015.41 1015.79 1016.29 1016.05 1015.81 1014.96 1014.45 1014.03 1013.52 1013.16 1012.72 1012.25 1011.68 1011.57 1010.94 1010.22 1010.25 1009.28 1006.89 1005.25 1005.17 1005.11 1005.38 1005.53 1005.55 1005.60 1005.25 1004.47 1003.73 1003.21 1002.68 1001.40 999.99 997.72 996.22 994.95 994.83
1015.93 1016.28 1016.27 1015.84 1015.46 1015.56 1015.29 1014.89 1015.21 1015.26 1014.98 1014.40 1013.17 1013.00 1013.02 1012.85 1012.83 1012.25 1011.74 1010.94 1010.33 1009.48 1008.01 1007.71 1005.54 1002.22 1001.36 1002.10 1002.79 1003.36 1003.84 1004.10 1004.17 1004.11 1003.41 1003.15 1002.89 1001.85 1000.83 999.11 997.57 995.81 994.66 994.24
1016.58 1016.69 1016.36 1016.09 1015.65 1015.47 1014.93 1013.94 1014.05 1013.83 1012.97 1012.20 1011.98 1011.70 1012.02 1011.92 1011.96 1011.37 1010.49 1009.90 1009.24 1007.13 1006.25 1005.25 1002.21 997.73 998.56 999.22 999.92 1001.33 1001.88 1002.37 1002.79 1003.07 1002.49 1002.10 1001.75 1000.82 1000.34 998.65 996.91 995.87 994.37 994.00
1016.38 1016.42 1016.07 1015.53 1015.44 1014.82 1013.95 1013.23 1012.53 1011.95 1011.16 1010.74 1010.63 1010.48 1010.57 1010.91 1010.80 1009.98 1008.69 1007.70 1005.76 1005.15 1004.29 1001.80 998.49 997.03 996.70 996.66 997.68 998.84 999.37 1000.25 1001.69 1001.97 1001.85 1001.22 1000.30 999.55 998.99 997.25 995.41 994.58 994.05 993.65
1016.50 1015.80 1015.29 1014.80 1013.96 1013.30 1012.12 1011.92 1011.37 1010.64 1010.40 1010.22 1009.62 1009.38 1009.36 1009.26 1009.23 1008.34 1007.15 1005.53 1004.45 1003.16 1001.39 999.32 996.47 995.30 994.91 994.31 995.39 996.80 998.15 999.19 1000.48 1000.70 1000.41 999.82 999.47 998.24 996.53 995.66 994.83 994.26 994.24 994.05
1016.03 1015.36 1014.34 1013.43 1012.66 1012.11 1011.79 1011.53 1010.95 1010.46 1010.16 1009.99 1009.30 1008.49 1008.48 1008.13 1007.94 1007.02 1006.20 1004.83 1003.09 1001.16 1000.09 998.31 997.07 996.68 997.05 996.54 996.01 996.73 997.69 998.41 999.11 999.41 999.24 998.76 997.94 996.74 995.88 995.32 994.64 994.40 993.96 994.34
1015.18 1014.38 1013.44 1012.86 1012.61 1011.92 1011.55 1011.22 1010.59 1010.19 1009.80 1009.24 1009.02 1008.05 1007.49 1007.14 1006.68 1005.81 1005.15 1004.13 1002.62 1001.69 1000.82 999.81 998.31 997.75 997.08 996.73 997.14 996.99 997.02 997.53 997.59 997.53 997.24 997.19 996.70 996.24 995.82 995.67 995.24 994.59 993.93 994.03
1013.97 1013.13 1012.73 1012.62 1012.30 1011.75 1011.24 1010.87 1010.22 1010.03 1010.05 1009.36 1008.62 1007.67 1006.96 1006.79 1006.26 1005.41 1004.83 1003.90 1002.84 1001.93 1000.70 1000.12 999.75 998.51 997.16 997.08 996.83 996.47 996.25 996.97 997.43 997.59 997.36 996.83 996.75 996.20 995.91 995.74 995.75 995.42 994.71 994.30
Wind_Speed
20 22 23 24 25 26 9 3 3 3 2 5 1 1 2 6 6 5 5 3 3 3 4 1 2 2 1 12 3 8 9 8 7 15 6 11 5 9 9 6 4 3 5 8
20 21 23 24 24 18 3 2 3 4 4 2 3 6 4 3 6 8 8 8 5 4 2 1 3 5 3 17 9 6 3 3 5 2 6 3 4 4 5 4 5 7 7 6
18 20 22 23 25 22 4 2 3 6 6 1 4 3 4 7 9 5 4 4 5 7 9 8 5 7 5 12 8 11 2 3 10 10 11 7 6 8 8 6 4 4 6 6
18 18 20 23 26 22 2 4 0 2 2 4 4 2 3 4 7 5 11 6 7 1 6 5 6 6 6 7 6 10 6 2 1 6 14 7 13 18 11 8 9 9 5 8
17 17 19 20 26 18 5 3 3 5 1 3 4 5 4 2 4 2 4 4 5 7 6 2 4 5 3 5 7 8 6 3 5 5 5 12 8 17 18 12 5 7 5 9
15 17 16 17 21 12 4 3 2 4 4 4 3 1 2 4 4 1 5 3 1 4 3 5 12 11 8 8 4 4 3 3 6 6 2 7 9 21 18 12 8 6 7 13
14 15 15 15 15 9 2 1 2 3 2 1 2 2 2 3 4 2 3 5 3 3 7 9 8 8 11 11 13 10 3 2 2 3 3 2 9 15 22 24 21 15 6 8
12 13 14 13 13 12 3 2 3 2 1 2 3 2 2 4 5 4 1 3 2 6 4 4 6 5 2 5 9 11 13 5 1 2 3 6 4 7 9 9 14 17 14 12
11 12 12 12 11 11 3 2 1 3 3 3 2 2 2 1 2 6 3 4 5 4 2 2 5 5 2 4 8 1 3 3 6 2 3 8 9 8 11 6 12 16 14 14
9 10 11 10 10 9 3 2 2 3 1 4 1 2 2 1 2 1 4 6 7 4 2 2 4 5 4 5 4 2 3 1 10 5 4 8 9 6 8 10 10 14 17 14
9 9 10 9 8 9 3 4 2 3 1 6 4 1 4 2 2 3 4 5 3 4 3 2 2 2 4 3 5 7 3 2 5 3 5 7 3 5 17 14 8 7 11 13
9 9 8 8 7 8 2 2 3 1 3 7 4 7 8 7 6 5 2 2 2 4 3 1 1 2 3 3 4 2 4 5 3 6 8 5 4 6 6 5 9 9 5 7
11 11 9 8 8 8 2 2 2 2 2 5 3 6 5 5 11 10 5 3 4 0 2 3 2 4 1 2 3 4 2 5 3 6 6 7 6 7 6 5 8 10 9 12
11 10 11 9 8 8 6 2 2 1 3 3 7 2 4 2 5 7 11 5 3 4 2 2 3 3 2 3 3 2 4 7 3 6 10 18 7 13 14 17 7 6 3 8
11 10 11 11 10 8 4 4 5 6 3 3 6 9 6 4 7 10 8 6 5 3 2 3 4 3 1 2 1 8 5 6 4 6 4 2 10 18 28 27 25 10 3 3
12 11 10 10 10 5 2 4 2 4 4 1 4 4 5 3 3 7 7 7 5 5 5 4 4 4 5 4 6 10 6 10 5 7 10 14 22 29 22 21 26 22 7 8
12 11 11 10 9 2 3 3 1 4 4 2 4 5 5 3 2 2 2 5 5 5 4 5 5 5 7 4 18 5 8 7 14 16 16 19 14 15 29 29 25 15 6 7
12 11 11 10 10 6 5 7 12 4 1 1 3 6 5 1 2 3 3 3 3 3 4 1 7 3 5 11 16 16 20 20 24 26 18 22 25 23 28 26 19 7 8 8
13 11 10 1 2 2 3 5 8 3 2 3 4 2 5 0 3 2 2 3 3 4 5 8 7 8 14 21 22 17 13 12 15 13 15 16 18 21 25 24 15 8 11 11
14 2 1 2 3 2 1 2 2 3 3 3 4 4 5 1 1 3 2 3 4 4 7 5 9 19 26 24 20 13 13 20 18 17 18 18 17 16 21 24 21 11 11 14
2 1 2 2 2 1 3 3 3 4 4 5 4 8 8 2 5 5 4 2 3 5 6 9 8 14 29 30 28 22 18 18 19 14 17 17 17 21 21 26 20 13 8 12
2 3 2 2 1 2 4 4 3 5 5 4 4 5 6 4 4 5 5 4 5 10 5 6 8 22 19 22 29 27 26 25 24 18 21 23 23 23 21 24 17 10 7 10
1 2 3 2 3 4 5 5 4 4 4 2 3 4 4 4 5 6 4 9 8 4 4 7 7 18 17 18 18 23 27 26 19 20 20 23 25 25 25 18 10 8 2 6
1 3 4 4 5 5 4 1 5 2 2 7 6 3 4 4 5 4 5 5 4 6 6 5 10 18 8 7 17 19 22 21 20 21 21 23 20 23 15 8 5 4 5 5
3 3 5 6 5 3 4 4 3 2 3 3 6 3 4 4 4 4 4 5 6 5 6 8 11 13 10 6 8 9 13 15 16 17 16 18 20 13 7 5 5 2 1 5
3 5 4 3 4 6 2 4 6 2 3 4 3 3 3 4 3 3 5 5 4 6 8 11 10 13 15 11 6 5 9 14 11 9 13 10 7 6 4 4 5 4 2 2
4 4 3 5 7 7 7 5 4 1 3 3 3 4 4 3 3 3 2 4 6 9 11 7 8 11 15 13 9 5 4 7 8 8 6 3 5 5 0 2 5 6 4 5
Wind_Direction
343 344 344 342 341 341 36 3 62 304 29 50 29 142 234 307 330 342 342 335 45 132 170 223 108 163 113 354 306 170 213 146 166 213 292 194 155 161 155 157 217 210 148 279
345 346 345 343 342 354 329 55 264 305 88 87 335 308 306 323 343 5 13 12 6 353 350 75 36 2 16 13 354 353 199 209 115 22 359 22 162 148 144 131 93 204 145 253
347 348 346 344 342 351 99 56 31 336 38 97 133 5 339 337 344 83 26 16 31 23 21 14 11 6 328 333 357 327 175 152 169 187 197 158 145 168 171 125 143 183 226 298
350 351 349 349 345 349 62 27 324 182 338 339 353 22 26 1 1 10 22 40 25 320 37 17 18 351 325 311 1 352 67 334 220 233 196 170 168 178 172 167 208 198 182 203
350 353 354 356 353 348 73 68 43 354 319 308 349 3 21 53 323 359 10 60 333 63 87 134 297 4 336 265 332 351 3 314 352 262 205 167 160 177 177 192 244 276 145 272
351 355 357 2 5 9 56 326 349 107 307 349 80 328 345 38 335 138 53 345 99 102 325 258 227 215 225 228 301 319 346 28 12 285 342 131 175 177 180 198 209 180 198 223
348 354 359 6 11 38 122 310 88 69 256 41 123 349 335 360 344 242 2 34 72 211 293 281 260 245 239 234 233 196 260 41 97 268 26 214 237 202 184 197 210 223 218 242
344 349 356 6 6 15 50 332 72 89 279 247 267 0 322 333 324 5 342 354 250 294 327 359 351 330 308 234 222 201 198 147 271 182 224 265 299 167 169 166 227 222 214 229
336 342 350 358 3 10 59 321 156 93 100 256 28 328 354 103 345 342 312 330 306 18 84 107 198 220 239 296 320 328 130 190 144 121 207 207 233 191 201 163 222 230 211 220
328 332 339 349 356 1 66 291 46 87 138 264 121 181 205 229 80 275 305 323 341 21 81 142 179 234 215 218 196 310 118 315 182 162 228 286 254 240 113 186 228 236 222 218
318 323 326 333 343 351 58 282 327 103 259 276 221 201 191 344 131 161 281 8 345 18 71 156 253 218 253 232 225 159 151 134 213 99 155 253 305 70 169 215 266 239 218 197
304 310 315 321 325 324 65 315 302 43 169 241 230 221 217 209 193 149 220 194 247 214 109 8 37 269 325 355 246 281 232 191 220 191 208 249 293 211 248 227 233 267 201 164
304 304 305 308 310 309 281 241 266 20 304 291 5 247 258 207 217 191 158 270 215 161 170 163 189 251 110 252 267 297 4 355 228 13 294 267 265 284 267 296 273 273 266 168
297 301 300 300 295 288 282 233 196 151 264 274 278 331 298 191 146 187 210 207 67 103 92 155 186 203 190 247 281 236 255 344 287 276 301 317 23 345 328 313 312 296 285 206
296 296 299 299 299 301 294 225 211 201 191 251 289 300 280 222 210 196 187 187 140 157 161 164 213 214 190 254 313 238 196 217 206 240 106 230 290 314 302 300 289 292 218 147
291 294 295 293 290 322 348 316 52 202 179 284 287 275 293 301 190 195 179 198 176 164 159 198 218 215 154 227 246 239 209 229 197 267 326 299 293 287 281 266 268 272 198 201
294 292 286 284 276 181 195 218 133 33 164 233 293 288 277 283 209 248 205 187 191 163 191 206 173 203 185 222 249 234 283 269 291 290 309 298 290 307 312 297 275 257 187 215
295 292 288 275 264 249 252 249 249 134 186 117 266 272 327 271 304 282 173 155 150 230 212 134 208 185 206 243 243 236 246 253 266 270 275 267 281 296 303 301 268 187 179 171
293 294 295 326 170 211 242 292 199 158 155 247 216 269 274 55 261 274 240 171 179 218 215 213 182 209 221 230 231 231 216 216 249 268 268 274 275 290 296 307 299 214 177 182
299 113 134 246 213 244 292 193 134 156 207 228 255 185 247 124 20 299 287 194 215 228 214 165 223 234 234 237 236 234 217 228 242 254 262 265 271 278 291 294 298 277 205 175
30 30 248 293 296 241 216 214 184 170 225 214 241 213 227 152 202 212 211 257 215 238 210 199 226 241 226 225 225 220 224 233 242 237 250 264 265 278 287 292 287 284 188 184
195 237 278 280 203 229 260 189 188 206 236 204 205 201 188 201 209 226 181 229 206 244 180 229 248 256 230 212 217 217 223 230 238 236 249 257 262 265 269 273 271 253 214 141
359 215 242 205 167 240 218 209 224 218 206 242 235 202 171 196 206 235 223 223 227 141 226 239 244 250 252 217 197 200 214 219 225 235 242 250 256 267 262 259 253 260 216 145
223 241 238 222 199 236 206 250 316 273 316 313 284 210 195 183 202 230 265 247 276 233 232 257 295 345 20 151 178 183 203 205 203 222 233 243 253 262 263 252 279 201 178 227
250 238 238 232 254 287 295 282 297 326 259 297 288 224 184 200 243 228 276 252 258 274 333 317 333 1 27 66 128 167 191 187 199 209 224 242 249 251 247 270 312 268 293 187
233 234 247 246 266 265 256 295 285 252 287 288 228 263 234 214 263 254 242 270 316 324 325 317 331 348 357 18 48 147 162 173 192 217 248 245 238 240 251 305 333 321 65 300
226 239 218 244 270 266 262 250 252 193 296 264 296 254 220 129 244 268 292 283 267 307 308 315 10 346 346 347 343 342 80 118 156 175 187 216 238 206 157 6 332 338 324 99